Regional Weather Roundup
Issued by NWS

Home | Current Version | Previous Version | Text Only | Print | Product List | Glossary On
Versions: 1 2 3 4 5 6 7 8 9 10 11 12 13 14 15 16 17 18 19 20 21 22 23 24 25 26 27 28 29 30 31 32 33 34 35 36 37 38 39 40 41 42 43 44 45 46 47 48 49 50
000
ASUS43 KFSD 300210
RWRSD

WEATHER ROUNDUP FOR SOUTH DAKOTA
NATIONAL WEATHER SERVICE SIOUX FALLS SD
900 PM CDT SUN MAY 29 2016

NOTE: "FAIR" INDICATES FEW OR NO CLOUDS BELOW 12,000 FEET WITH NO
SIGNIFICANT WEATHER AND/OR OBSTRUCTIONS TO VISIBILITY.


SDZ001>005-009-010-012>017-300300-
NORTHWEST AND NORTH CENTRAL SOUTH DAKOTA

CITY           SKY/WX    TMP DP  RH WIND       PRES   REMARKS
BUFFALO          N/A     69  50  50 SE10      29.90S
FAITH            N/A     62  49  62 E12       29.97F
MOBRIDGE       CLOUDY    64  58  80 SE6       29.94F
$$

SDZ012>016-024>037-041>051-057-063-072>074-300300-
SOUTHWEST AND SOUTH CENTRAL SOUTH DAKOTA

CITY           SKY/WX    TMP DP  RH WIND       PRES   REMARKS
RAPID CTY ARPT CLEAR     67  53  61 E8        29.96S
PIERRE         PTCLDY    69  57  65 E3        29.95S
CUSTER         CLEAR     64  31  28 S5        30.08R
ELLSWORTH AFB  CLEAR     70  53  54 E7        29.96S
PHILIP         CLEAR     68  58  70 E9        29.94S
PINE RIDGE     CLOUDY    71  50  47 N8        29.96R
WINNER         FAIR      71  56  58 E10       29.98R
$$

SDZ004>011-016>023-039-040-300300-
NORTHEAST SOUTH DAKOTA

CITY           SKY/WX    TMP DP  RH WIND       PRES   REMARKS
ABERDEEN       PTCLDY    68  51  54 SW5       29.95F
WATERTOWN      CLEAR     70  45  40 W6        29.98S
BROOKINGS      CLEAR     68  51  54 W6        30.00R
SISSETON         N/A     72  44  36 NW5       29.93F
$$

SDZ017-020-022-023-036>040-048>070-300300-
SOUTHEAST SOUTH DAKOTA

CITY           SKY/WX    TMP DP  RH WIND       PRES   REMARKS
SIOUX FALLS    CLEAR     67  52  58 CALM      30.01R
HURON          CLEAR     70  51  51 S6        29.97S
CHAMBERLAIN    PTCLDY    71  59  66 E6        29.98S
MITCHELL       CLEAR     71  59  65 SE7       29.99S
YANKTON        CLEAR     72  57  60 E6        29.99R
$$

ABBREVIATIONS USED IN REMARKS
   TC - TEMPERATURE IN CELSIUS
  WCI - WIND CHILL INDEX
   HX - HEAT INDEX
  VSB - VISIBILITY





USA.gov is the U.S. government's official web portal to all federal, state and local government web resources and services.